[[{"header":{"parameterUnit":"m.s-1","parameterCategory":1,"la1":30.2991,"la2":30.254,"lo1":-89.0895,"lo2":-89.0444,"dy":0.0017,"dx":0.0017,"nx":28,"ny":28,"refTime":"2024-04-05T09:00:00:Z","depth":0,"parameterNumber":2,"parameterNumberName":"U-component_of_WINDS"},"data":[0,0,0,0,0,0,0,0,0,0,0,0,0,0,0,0,0,0,0,0,0,0,0,0,0,0,0,0,0,0,0,0,0,0,0,0,0,0,0,0,0,0,0,0,0,0,0,0,0,0,0,0,0,0,0,0,0,0,3.7902,3.7904,0,3.8045,3.8047,3.8049,3.7981,3.7977,3.7974,3.797,3.8119,3.8126,3.8134,0,0,0,0,0,0,0,0,0,0,0,0,0,3.7573,3.7579,3.7902,3.7904,3.7906,3.8045,3.8047,3.8049,3.7981,3.7977,3.7973,3.7968,3.8117,3.8125,3.8134,0,0,0,0,0,0,0,0,0,0,0,0,0,3.7716,3.7581,3.7902,3.7889,3.7889,3.8045,3.8047,3.805,3.7982,3.7977,3.7971,3.7966,3.8114,3.8125,3.8136,3.8313,0,0,3.8169,3.8174,0,0,0,0,0,0,0,0,3.7708,3.7728,3.7889,3.789,3.789,3.799,3.7986,3.8138,3.7984,3.7947,3.797,3.7964,3.8081,3.8094,3.8133,3.832,3.8327,3.817,3.8177,3.8182,3.8185,0,0,0,0,0,0,0,3.7698,3.7722,3.7959,3.7891,3.7892,3.7877,3.7891,3.8014,3.8043,3.795,3.7945,3.7963,3.808,3.8123,3.8136,3.8329,3.817,3.818,3.8187,3.8191,3.8671,3.8677,0,0,0,0,0,0,3.7688,3.7714,3.7954,3.7963,3.7784,3.7887,3.7903,3.7963,3.8041,3.8048,3.7967,3.7959,3.8106,3.8123,3.8141,3.8356,3.8182,3.8192,3.8198,3.8665,3.8673,3.8679,0,0,0,0,0,0,3.7681,3.771,3.7948,3.7837,3.7866,3.7898,3.7967,3.7969,3.8011,3.8055,3.806,3.8006,3.8103,3.8126,3.8271,3.836,3.8197,3.8207,3.8658,3.8667,3.8676,3.8786,0,0,0,0,0,0,3.7672,3.7708,3.7775,3.7839,3.7873,3.8076,3.7972,3.7976,3.803,3.8021,3.8092,3.8098,3.81,3.8255,3.8282,3.8372,3.8216,3.865,3.8662,3.8673,3.8775,3.8798,3.8818,0,0,0,0,0,3.7661,3.7801,3.7779,3.7809,3.7957,3.8081,3.81,3.8099,3.8038,3.8106,3.8134,3.8096,3.8346,3.8271,3.8301,3.8395,3.8645,3.8659,3.8672,3.8765,3.8794,3.8818,0,0,0,0,0,0,3.7747,3.7809,3.7786,3.795,3.8011,3.8069,3.8155,3.8129,3.8208,3.8196,3.8192,3.8209,3.836,3.8392,3.8307,3.8573,3.8486,3.8506,3.8547,3.8574,3.8595,3.8585,3.8225,0,0,0,0,0,3.7785,3.788,3.7929,3.807,3.8101,3.8124,3.8177,3.8171,3.8234,3.826,3.8298,3.8361,3.8454,3.8515,3.8603,3.8779,3.8794,3.8859,3.888,3.8898,3.8916,3.9014,3.9043,3.8725,3.8724,3.8724,0,0,3.7865,3.7911,3.7971,3.8088,3.8135,3.8234,3.8145,3.8254,3.8328,3.8276,3.8417,3.8447,3.8517,3.868,3.8753,3.8711,3.9008,3.8915,3.8929,3.8938,3.9031,3.9061,3.9088,3.8734,3.8732,3.8731,0,0,3.8063,3.8106,3.8228,3.8277,3.8347,3.8361,3.8391,3.8454,3.8472,3.8613,3.8576,3.8665,3.8824,3.8876,3.8924,3.9142,3.911,3.917,3.9284,3.9379,3.9404,3.9426,3.9506,3.9534,3.9188,3.9188,3.9189,0,3.8154,3.8301,3.8295,3.8407,3.8461,3.8418,3.8543,3.859,3.8687,3.8725,3.8676,3.8876,3.8921,3.9095,3.9149,3.9188,3.9223,3.9163,3.94,3.9423,3.9444,3.952,3.955,3.9195,3.9195,3.9194,3.9193,0,3.841,3.8513,3.8604,3.8698,3.8761,3.888,3.8893,3.8958,3.8947,3.8966,3.9111,3.9162,3.9261,3.9301,3.9291,3.9475,3.9447,3.94,3.9313,3.9481,3.9553,3.9582,3.9205,3.9203,3.9201,3.9199,0,0,3.8667,3.8756,3.879,3.8833,3.8908,3.8988,3.9105,3.92,3.9257,3.9325,3.9424,3.956,3.9517,3.9571,3.9566,3.965,3.9822,3.9592,3.9594,3.9635,4.003,4.0067,4.0101,3.98,3.9806,3.981,4.0025,0,3.8871,3.9075,3.9073,3.9262,3.9359,3.9319,3.9421,3.9479,3.9501,3.9586,3.9609,3.9707,3.9641,3.9674,3.9754,3.9784,3.9901,3.9768,3.9894,3.9899,3.988,4.0138,4.0177,4.0378,4.0053,4.0058,4.0061,0,3.9137,3.9213,3.9412,3.9474,3.9515,3.9606,3.9694,3.9776,3.9841,3.9851,3.9912,3.9895,4.0015,3.9923,4.009,3.9999,4.0051,4.0073,4.0081,4.0094,3.9992,4.016,4.0441,4.0472,4.0105,4.0101,4.0098,0,3.9307,3.9459,3.9598,3.9636,3.9711,3.9777,3.9812,3.9872,3.993,4.0007,4.0045,4.0135,4.0185,4.0256,4.0265,4.0197,4.0433,4.0342,4.0447,4.0447,4.05,4.0497,4.0795,4.053,4.0529,4.0529,4.0528,0,3.9536,3.966,3.9676,3.9762,3.9899,3.9897,4.0034,4.0063,4.0117,4.0208,4.0179,4.0266,4.0271,4.036,4.0367,4.0506,4.0528,4.0541,4.0542,4.0545,4.0544,4.058,4.0567,4.0537,4.0535,4.0533,4.0532,0,3.975,3.9766,3.9915,3.9974,3.9992,4.0091,4.0143,4.0225,4.0243,4.036,4.0387,4.0417,4.0521,4.0536,4.0657,4.0662,4.0829,4.0814,4.0807,4.0806,4.0911,4.0902,4.1245,4.129,4.0993,4.0996,4.0998,0,3.9897,3.9991,4.006,4.0119,4.0158,4.0253,4.0312,4.0313,4.0376,4.0458,4.0532,4.0632,4.0713,4.0882,4.0915,4.1008,4.0997,4.1111,4.1011,4.1012,4.1002,4.0997,4.1007,4.1131,4.1134,4.1137,4.1139,0,4.0156,4.0159,4.0245,4.0334,4.0405,4.0475,4.0542,4.0592,4.0602,4.0674,4.078,4.0843,4.0967,4.1068,4.1161,4.1198,4.1172,4.1169,4.1199,4.1205,4.1197,4.1205,4.0862,4.1162,4.116,4.1158,4.1157,4.1156,4.0342,4.0425,4.0487,4.0584,4.0634,4.0697,4.0777,4.0806,4.0894,4.0995,4.099,4.1107,4.1171,4.1293,4.1336,4.1429,4.1392,4.1434,4.1445,4.1456,4.1468,4.1181,4.1445,4.1445,4.1444,4.1443,4.1443,0,4.0602,4.064,4.0729,4.0823,4.0899,4.0866,4.0937,4.1004,4.1107,4.1169,4.1249,4.1372,4.147,4.1511,4.1607,4.1674,4.1664,4.17,4.1696,4.1705,4.1494,4.146,4.1706,4.1706,4.1706,4.1706,4.1706,4.1706,4.0746,4.0885,4.0896,4.1059,4.1096,4.121,4.1254,4.1313,4.1362,4.15,4.1581,4.1606,4.166,4.1761,4.185,4.186,4.1898,4.1939,4.1944,4.1746,4.172,4.1695,4.1662,4.1947,4.1947,4.2147,4.2149,4.2151]},{"header":{"parameterUnit":"m.s-1","parameterCategory":1,"la1":30.2991,"la2":30.254,"lo1":-89.0895,"lo2":-89.0444,"dy":0.0017,"dx":0.0017,"nx":28,"ny":28,"refTime":"2024-04-05T09:00:00:Z","depth":0,"parameterNumber":3,"parameterNumberName":"V-component_of_WINDS"},"data":[0,0,0,0,0,0,0,0,0,0,0,0,0,0,0,0,0,0,0,0,0,0,0,0,0,0,0,0,0,0,0,0,0,0,0,0,0,0,0,0,0,0,0,0,0,0,0,0,0,0,0,0,0,0,0,0,0,0,-1.1888,-1.1888,0,-1.1899,-1.1899,-1.1899,-1.1913,-1.1914,-1.1914,-1.1914,-1.1925,-1.1925,-1.1925,0,0,0,0,0,0,0,0,0,0,0,0,0,-1.1877,-1.1877,-1.1888,-1.1888,-1.1888,-1.1899,-1.1899,-1.1899,-1.1913,-1.1914,-1.1914,-1.1914,-1.1925,-1.1925,-1.1925,0,0,0,0,0,0,0,0,0,0,0,0,0,-1.1884,-1.1877,-1.1888,-1.1896,-1.1897,-1.1899,-1.1899,-1.1899,-1.1913,-1.1914,-1.1914,-1.1914,-1.1925,-1.1925,-1.1925,-1.1919,0,0,-1.1925,-1.1925,0,0,0,0,0,0,0,0,-1.1884,-1.1884,-1.1895,-1.1896,-1.1897,-1.1905,-1.1899,-1.1906,-1.1913,-1.1907,-1.1914,-1.1915,-1.1918,-1.1919,-1.192,-1.1919,-1.192,-1.1925,-1.1925,-1.1925,-1.1925,0,0,0,0,0,0,0,-1.1883,-1.1884,-1.1892,-1.1895,-1.1896,-1.1899,-1.1901,-1.1901,-1.191,-1.1908,-1.1909,-1.191,-1.1918,-1.192,-1.192,-1.192,-1.1925,-1.1925,-1.1925,-1.1925,-1.1914,-1.1914,0,0,0,0,0,0,-1.1881,-1.1883,-1.1892,-1.1892,-1.1891,-1.1899,-1.1901,-1.1902,-1.191,-1.1912,-1.191,-1.1911,-1.1919,-1.192,-1.1921,-1.1914,-1.1925,-1.1925,-1.1925,-1.1915,-1.1914,-1.1914,0,0,0,0,0,0,-1.1881,-1.1882,-1.1891,-1.1888,-1.189,-1.1899,-1.19,-1.1902,-1.1904,-1.1912,-1.1914,-1.1909,-1.192,-1.1921,-1.1919,-1.1914,-1.1925,-1.1926,-1.1915,-1.1915,-1.1914,-1.1899,0,0,0,0,0,0,-1.1881,-1.1882,-1.188,-1.1888,-1.189,-1.189,-1.19,-1.1902,-1.1904,-1.1905,-1.1912,-1.1914,-1.192,-1.1919,-1.1919,-1.1914,-1.1926,-1.1916,-1.1915,-1.1914,-1.19,-1.1898,-1.1897,0,0,0,0,0,-1.188,-1.1875,-1.188,-1.188,-1.1888,-1.1889,-1.189,-1.1898,-1.1903,-1.1901,-1.1907,-1.1913,-1.1915,-1.1919,-1.1919,-1.1914,-1.1916,-1.1915,-1.1914,-1.1901,-1.1899,-1.1897,0,0,0,0,0,0,-1.1865,-1.1876,-1.1881,-1.1879,-1.1883,-1.1892,-1.1889,-1.1896,-1.1898,-1.1899,-1.1909,-1.191,-1.1907,-1.1911,-1.1915,-1.1909,-1.1916,-1.1916,-1.1906,-1.1904,-1.1902,-1.1901,-1.1926,0,0,0,0,0,-1.1862,-1.1863,-1.1872,-1.1869,-1.1871,-1.188,-1.1881,-1.1887,-1.1891,-1.1893,-1.1898,-1.1902,-1.1904,-1.1904,-1.1906,-1.1901,-1.1903,-1.1898,-1.1897,-1.1895,-1.1894,-1.1891,-1.1889,-1.1911,-1.1911,-1.1911,0,0,-1.1854,-1.186,-1.186,-1.1866,-1.187,-1.187,-1.1881,-1.1881,-1.1881,-1.1893,-1.1892,-1.1896,-1.1901,-1.1898,-1.1897,-1.1901,-1.1888,-1.1894,-1.1893,-1.1892,-1.189,-1.1888,-1.1886,-1.1911,-1.1911,-1.1911,0,0,-1.1841,-1.1846,-1.1843,-1.1847,-1.1853,-1.1859,-1.1859,-1.1867,-1.187,-1.1869,-1.1878,-1.1878,-1.188,-1.1883,-1.1885,-1.1873,-1.1879,-1.1874,-1.1864,-1.1861,-1.1859,-1.1858,-1.1852,-1.1851,-1.1873,-1.1873,-1.1873,0,-1.183,-1.1831,-1.1841,-1.1841,-1.1843,-1.1854,-1.1851,-1.1855,-1.1861,-1.1862,-1.1866,-1.1869,-1.1874,-1.1871,-1.1868,-1.1869,-1.1868,-1.1872,-1.1859,-1.1857,-1.1856,-1.1851,-1.1849,-1.1872,-1.1872,-1.1872,-1.1872,0,-1.1818,-1.1819,-1.1816,-1.1822,-1.1824,-1.1822,-1.1831,-1.1832,-1.1838,-1.1843,-1.1842,-1.1848,-1.1851,-1.1851,-1.1856,-1.1849,-1.1851,-1.1857,-1.1865,-1.1853,-1.1848,-1.1847,-1.1871,-1.1871,-1.1871,-1.1872,0,0,-1.1794,-1.1806,-1.1805,-1.1807,-1.1815,-1.1816,-1.1815,-1.1818,-1.1818,-1.1822,-1.1821,-1.1823,-1.1829,-1.1831,-1.1837,-1.1835,-1.1824,-1.1841,-1.1841,-1.1837,-1.1815,-1.1809,-1.1807,-1.1828,-1.1828,-1.1828,-1.1814,0,-1.1781,-1.178,-1.1789,-1.1785,-1.1785,-1.1796,-1.1795,-1.18,-1.1805,-1.1806,-1.1812,-1.1812,-1.182,-1.1822,-1.182,-1.1825,-1.1819,-1.1827,-1.1826,-1.1826,-1.1823,-1.1804,-1.1799,-1.1785,-1.1812,-1.1812,-1.1812,0,-1.1765,-1.1769,-1.1765,-1.1773,-1.1773,-1.1772,-1.1776,-1.1777,-1.1782,-1.1786,-1.1789,-1.1796,-1.1795,-1.1803,-1.1802,-1.1806,-1.1807,-1.181,-1.1809,-1.1808,-1.1817,-1.1802,-1.1781,-1.1778,-1.1809,-1.181,-1.181,0,-1.1746,-1.175,-1.1749,-1.1751,-1.1761,-1.1759,-1.1763,-1.1769,-1.177,-1.1774,-1.1774,-1.1777,-1.1779,-1.1781,-1.1788,-1.1794,-1.1785,-1.1794,-1.1788,-1.1787,-1.1784,-1.1784,-1.1762,-1.1787,-1.1787,-1.1787,-1.1787,0,-1.173,-1.1727,-1.174,-1.1739,-1.1736,-1.1747,-1.1743,-1.1748,-1.1753,-1.1753,-1.1763,-1.1762,-1.1773,-1.1773,-1.178,-1.1777,-1.1777,-1.178,-1.1781,-1.1778,-1.1778,-1.1778,-1.1778,-1.1786,-1.1786,-1.1786,-1.1787,0,-1.1708,-1.1717,-1.1716,-1.1725,-1.1728,-1.1725,-1.1733,-1.1732,-1.1738,-1.1737,-1.1738,-1.1747,-1.1748,-1.1756,-1.1759,-1.1763,-1.1757,-1.1761,-1.1756,-1.1756,-1.1749,-1.1749,-1.1724,-1.1721,-1.1749,-1.1749,-1.1749,0,-1.1696,-1.1694,-1.1704,-1.1704,-1.1708,-1.1709,-1.171,-1.1721,-1.1722,-1.1728,-1.1726,-1.1728,-1.173,-1.1731,-1.1738,-1.174,-1.1743,-1.1734,-1.1743,-1.174,-1.1741,-1.1741,-1.174,-1.1732,-1.1731,-1.1731,-1.1731,0,-1.1674,-1.1678,-1.168,-1.1684,-1.1686,-1.1689,-1.1693,-1.1693,-1.1704,-1.1705,-1.1706,-1.1708,-1.1711,-1.1713,-1.1716,-1.172,-1.1727,-1.1728,-1.1727,-1.1723,-1.1719,-1.172,-1.1749,-1.1728,-1.1729,-1.1729,-1.1729,-1.1729,-1.1655,-1.1654,-1.166,-1.1662,-1.1667,-1.167,-1.1669,-1.1676,-1.1677,-1.1681,-1.1687,-1.1687,-1.1693,-1.1698,-1.1701,-1.1701,-1.1706,-1.1703,-1.1703,-1.1701,-1.1699,-1.172,-1.1702,-1.1702,-1.1702,-1.1702,-1.1702,0,-1.1632,-1.1637,-1.1639,-1.1644,-1.1646,-1.1654,-1.1659,-1.1659,-1.1659,-1.1664,-1.1666,-1.1667,-1.1669,-1.1676,-1.1678,-1.1677,-1.168,-1.1677,-1.1676,-1.1677,-1.1696,-1.1697,-1.1674,-1.1674,-1.1674,-1.1674,-1.1674,-1.1674,-1.162,-1.1618,-1.1624,-1.1624,-1.1629,-1.1629,-1.1631,-1.1634,-1.1638,-1.1639,-1.1641,-1.1646,-1.1651,-1.1654,-1.1656,-1.1658,-1.1658,-1.1653,-1.1656,-1.1673,-1.1676,-1.1678,-1.1679,-1.1653,-1.1653,-1.1637,-1.1637,-1.1637]}]]